NORTHRYDE Weather Reports


Display with metric or nautical units.
time (UTC)temp
F
wind
direction
speed
MPH
gust
MPH
rain 1hr
in
rain 24hr
in
rain mn
in
humidity
%
barometer
mb
20260504120237 66 274 2.0 4.0 0.00 0.11 0.11 81 1016.9
20260504120139 66 262 2.0 4.0 0.00 0.11 0.11 81 1017.0
20260504110646 67 22 2.0 8.0 0.00 0.11 0.11 80 1016.5
20260504110617 67 5 1.0 8.0 0.00 0.11 0.11 80 1016.5
20260504110553 67 333 2.0 8.0 0.00 0.11 0.11 80 1016.6
20260504110253 67 15 3.0 8.0 0.00 0.11 0.11 80 1016.6
20260504110151 67 15 3.0 8.0 0.00 0.11 0.11 80 1016.5
20260504110114 67 46 3.0 8.0 0.00 0.11 0.11 80 1016.5
20260504100610 67 30 4.0 8.0 0.00 0.11 0.11 81 1015.9
20260504100511 67 46 4.0 8.0 0.00 0.11 0.11 81 1015.9
20260504100410 67 55 4.0 7.0 0.00 0.11 0.11 81 1015.9
20260504100215 67 18 3.0 6.0 0.00 0.11 0.11 81 1016.0
20260504100112 67 53 3.0 6.0 0.00 0.11 0.11 81 1016.0
20260504081909 67 66 3.0 7.0 0.00 0.11 0.11 84 1015.9
20260504081809 67 57 3.0 7.0 0.00 0.11 0.11 84 1016.0
20260504081711 67 29 2.0 7.0 0.00 0.11 0.11 84 1016.0
20260504081611 67 36 2.0 7.0 0.00 0.11 0.11 84 1015.9
20260504081511 67 28 2.0 7.0 0.00 0.11 0.11 83 1015.9
20260504081410 67 27 2.0 7.0 0.00 0.11 0.11 84 1015.9
20260504081315 67 42 2.0 6.0 0.00 0.11 0.11 84 1016.0
20260504081215 67 79 3.0 6.0 0.00 0.11 0.11 84 1016.0
20260504081114 67 63 3.0 6.0 0.00 0.11 0.11 84 1015.8
20260504081010 67 52 3.0 6.0 0.00 0.11 0.11 84 1015.9
20260504080914 67 31 3.0 6.0 0.00 0.11 0.11 84 1015.9
20260504080810 67 53 3.0 6.0 0.00 0.11 0.11 84 1015.9
20260504080737 67 39 2.0 5.0 0.00 0.11 0.11 84 1016.0
20260504080609 67 5 2.0 5.0 0.00 0.11 0.11 84 1015.9
20260504080528 67 50 2.0 4.0 0.00 0.11 0.11 84 1016.0
20260504080503 67 69 2.0 4.0 0.00 0.11 0.11 84 1016.0
20260504080443 67 55 2.0 4.0 0.00 0.11 0.11 84 1016.0
20260504080407 67 5 2.0 4.0 0.00 0.11 0.11 84 1015.9
20260504080130 67 42 2.0 4.0 0.00 0.11 0.11 84 1015.9
20260504070336 68 355 2.0 4.0 0.00 0.11 0.11 81 1015.5
20260504070137 69 329 1.0 4.0 0.00 0.11 0.11 81 1015.5
20260504060246 71 45 4.0 7.0 0.00 0.11 0.11 75 1015.6
20260504060145 71 10 4.0 7.0 0.00 0.11 0.11 75 1015.5
20260504050738 70 10 2.0 6.0 0.00 0.11 0.11 80 1015.7
20260504050639 70 352 5.0 6.0 0.00 0.11 0.11 80 1015.7
20260504050542 70 329 4.0 6.0 0.00 0.11 0.11 80 1015.8
20260504050438 70 323 2.0 9.0 0.00 0.11 0.11 81 1015.7
20260504050344 70 325 1.0 9.0 0.00 0.11 0.11 81 1015.7
20260504050233 70 327 1.0 9.0 0.00 0.11 0.11 81 1015.8
20260504050204 70 327 1.0 9.0 0.00 0.11 0.11 81 1015.7
20260504045955 69 327 2.0 10.0 0.00 0.11 0.11 81 1015.6
20260504045934 69 336 4.0 10.0 0.00 0.11 0.11 81 1015.7
20260504045620 69 0 3.0 10.0 0.00 0.11 0.11 81 1015.7
20260504045511 69 352 3.0 10.0 0.00 0.11 0.11 81 1015.8
20260504045415 69 320 4.0 10.0 0.00 0.11 0.11 82 1015.7
20260504045310 69 350 4.0 10.0 0.00 0.11 0.11 82 1015.7
20260504045111 69 0 5.0 10.0 0.00 0.11 0.11 83 1015.7
20260504045010 68 28 6.0 10.0 0.00 0.11 0.11 83 1015.7
20260504044912 68 346 3.0 10.0 0.00 0.11 0.11 84 1015.7
20260504044812 68 331 3.0 5.0 0.00 0.11 0.11 84 1015.8
20260504044611 68 5 3.0 5.0 0.00 0.11 0.11 84 1015.8
20260504044513 68 326 4.0 5.0 0.00 0.11 0.11 84 1015.7
20260504044410 68 11 3.0 5.0 0.00 0.11 0.11 85 1015.8
20260504044311 68 339 2.0 5.0 0.00 0.11 0.11 85 1015.7
20260504044109 68 335 1.0 6.0 0.00 0.11 0.11 85 1015.7
20260504044010 68 34 1.0 6.0 0.00 0.11 0.11 85 1015.6
20260504043912 68 34 1.0 6.0 0.00 0.11 0.11 85 1015.6
20260504043811 68 329 1.0 6.0 0.00 0.11 0.11 85 1015.6
20260504043629 68 9 2.0 8.0 0.00 0.11 0.11 85 1015.7
20260504043604 68 9 4.0 8.0 0.00 0.11 0.11 85 1015.6
20260504043545 68 5 4.0 8.0 0.00 0.11 0.11 85 1015.7
20260504043517 68 53 3.0 8.0 0.00 0.11 0.11 85 1015.8
20260504043201 68 30 2.0 8.0 0.00 0.11 0.11 85 1015.7
20260504043059 68 349 2.0 8.0 0.01 0.11 0.11 86 1015.7
20260504042958 68 69 2.0 8.0 0.02 0.11 0.11 86 1015.8
20260504042859 68 331 3.0 8.0 0.02 0.11 0.11 86 1015.8
20260504042754 68 38 2.0 8.0 0.02 0.11 0.11 86 1015.8
20260504042649 68 348 1.0 6.0 0.02 0.11 0.11 86 1015.8
20260504042551 68 53 2.0 4.0 0.02 0.11 0.11 86 1015.7
20260504042447 68 53 1.0 5.0 0.02 0.11 0.11 86 1015.8
20260504042342 68 39 2.0 5.0 0.02 0.11 0.11 86 1015.8
20260504042240 68 48 2.0 6.0 0.02 0.11 0.11 86 1015.7
20260504042139 68 26 2.0 6.0 0.02 0.11 0.11 86 1015.8
20260504042039 68 331 2.0 6.0 0.02 0.11 0.11 86 1015.8
20260504041940 68 5 2.0 6.0 0.02 0.11 0.11 86 1015.8
20260504041837 68 5 2.0 6.0 0.02 0.11 0.11 86 1015.8
20260504041739 68 352 2.0 6.0 0.02 0.11 0.11 86 1015.8
20260504041638 68 9 2.0 6.0 0.02 0.11 0.11 86 1015.8
20260504041537 68 5 4.0 6.0 0.02 0.11 0.11 86 1015.8
20260504041439 68 50 4.0 6.0 0.02 0.11 0.11 87 1015.8
20260504041337 68 15 3.0 6.0 0.02 0.11 0.11 87 1015.9
20260504041237 68 31 3.0 6.0 0.02 0.11 0.11 87 1016.0
20260504041138 67 63 4.0 7.0 0.02 0.11 0.11 87 1015.9
20260504041036 67 17 3.0 7.0 0.02 0.11 0.11 87 1016.0
20260504040936 67 41 2.0 7.0 0.02 0.11 0.11 88 1015.9
20260504040836 67 5 3.0 7.0 0.02 0.11 0.11 88 1016.1
20260504040740 67 28 4.0 7.0 0.02 0.11 0.11 88 1016.1
20260504040637 67 37 4.0 7.0 0.02 0.11 0.11 88 1016.1
20260504040539 67 16 4.0 7.0 0.02 0.11 0.11 88 1016.0
20260504040438 67 47 4.0 7.0 0.02 0.11 0.11 88 1016.0
20260504040337 67 69 3.0 7.0 0.02 0.11 0.11 89 1016.1
20260504040249 67 43 3.0 7.0 0.02 0.11 0.11 89 1016.1
20260504040141 67 9 3.0 6.0 0.02 0.11 0.11 89 1016.1
20260504040037 67 47 2.0 6.0 0.02 0.11 0.11 89 1016.2
20260504035934 67 28 2.0 6.0 0.02 0.09 0.11 89 1016.2
20260504035820 67 53 3.0 6.0 0.02 0.09 0.11 89 1016.2
20260504035723 67 51 3.0 6.0 0.02 0.09 0.11 89 1016.2
20260504035618 67 61 2.0 5.0 0.02 0.09 0.11 89 1016.0
20260504035515 67 32 3.0 4.0 0.02 0.09 0.11 89 1016.1
20260504035415 67 31 2.0 4.0 0.02 0.09 0.11 89 1016.1
20260504035312 67 40 2.0 4.0 0.02 0.09 0.11 90 1016.2
20260504035211 67 30 2.0 5.0 0.02 0.09 0.11 90 1016.2
20260504035112 66 43 3.0 5.0 0.02 0.09 0.11 90 1016.2
20260504035009 66 61 3.0 5.0 0.02 0.09 0.11 90 1016.1
20260504034909 66 43 1.0 5.0 0.02 0.09 0.11 90 1016.1
20260504034809 66 31 1.0 5.0 0.02 0.09 0.11 90 1016.2
20260504034709 66 36 2.0 5.0 0.02 0.09 0.11 90 1016.2
20260504034611 66 22 3.0 5.0 0.02 0.09 0.11 89 1016.2
20260504034510 66 30 2.0 5.0 0.02 0.09 0.11 89 1016.3
20260504034412 66 43 2.0 5.0 0.02 0.09 0.11 89 1016.2
20260504034310 66 63 2.0 5.0 0.02 0.09 0.11 89 1016.3
20260504034211 66 17 2.0 5.0 0.02 0.09 0.11 89 1016.3
20260504034115 66 9 2.0 5.0 0.02 0.09 0.11 89 1016.4
20260504034009 66 65 3.0 5.0 0.02 0.09 0.11 89 1016.3
20260504033909 66 44 2.0 5.0 0.02 0.09 0.11 89 1016.3
20260504033810 66 55 1.0 5.0 0.02 0.09 0.11 89 1016.2
20260504033713 66 59 1.0 5.0 0.02 0.09 0.11 89 1016.3
20260504033612 66 32 1.0 5.0 0.02 0.09 0.11 89 1016.2
20260504033510 66 65 1.0 5.0 0.02 0.09 0.11 89 1016.3
20260504033410 66 33 1.0 5.0 0.03 0.09 0.11 89 1016.2
20260504033310 66 73 2.0 5.0 0.03 0.09 0.11 89 1016.2
20260504033238 66 73 3.0 5.0 0.03 0.09 0.10 89 1016.3
20260504033112 66 66 3.0 5.0 0.02 0.09 0.09 89 1016.3
20260504033022 66 76 2.0 7.0 0.02 0.09 0.09 89 1016.4
20260504032957 66 28 2.0 7.0 0.01 0.09 0.09 89 1016.4
20260504032935 66 59 1.0 7.0 0.01 0.09 0.09 89 1016.4
20260504032906 66 59 2.0 7.0 0.02 0.09 0.09 89 1016.6
20260504032610 66 54 2.0 7.0 0.02 0.09 0.09 89 1016.6
20260504032510 66 42 2.0 7.0 0.02 0.09 0.09 88 1016.6
20260504032408 66 55 3.0 7.0 0.02 0.09 0.09 88 1016.6
20260504032310 66 50 4.0 7.0 0.02 0.09 0.09 88 1016.5
20260504032208 66 34 4.0 7.0 0.02 0.09 0.09 88 1016.6
20260504032109 66 63 2.0 7.0 0.02 0.09 0.09 88 1016.6
20260504032014 66 55 2.0 5.0 0.03 0.09 0.09 89 1016.6
20260504031909 66 51 2.0 5.0 0.03 0.09 0.09 89 1016.5
20260504031814 66 66 1.0 5.0 0.03 0.09 0.09 89 1016.6
20260504031709 66 42 2.0 5.0 0.03 0.09 0.09 88 1016.6
20260504031611 66 42 1.0 5.0 0.04 0.09 0.09 88 1016.8
20260504031513 66 21 0.0 5.0 0.04 0.09 0.09 88 1016.8
20260504031411 66 27 1.0 3.0 0.04 0.09 0.09 88 1016.7
20260504031309 66 27 1.0 3.0 0.04 0.09 0.09 88 1016.6
20260504031211 66 27 1.0 3.0 0.04 0.09 0.09 88 1016.7
20260504031110 66 21 1.0 2.0 0.05 0.09 0.09 88 1016.7
20260504031011 66 21 0.0 2.0 0.05 0.09 0.09 88 1016.7
20260504030911 66 21 0.0 2.0 0.05 0.09 0.09 88 1016.8
20260504030813 66 21 0.0 2.0 0.05 0.09 0.09 88 1016.8
20260504030710 66 21 0.0 2.0 0.06 0.09 0.09 88 1016.9
20260504030614 66 21 0.0 2.0 0.06 0.09 0.09 88 1016.8
20260504030509 66 21 0.0 2.0 0.06 0.09 0.09 88 1016.8
20260504030412 66 22 1.0 2.0 0.06 0.09 0.09 88 1016.9
20260504030312 66 352 0.0 2.0 0.06 0.09 0.09 88 1016.9
20260504030230 66 352 0.0 3.0 0.06 0.09 0.09 88 1016.9
20260504030111 66 37 0.0 3.0 0.06 0.09 0.09 88 1017.0
20260504030013 66 37 0.0 3.0 0.06 0.03 0.09 88 1017.0
20260504025913 66 39 0.0 3.0 0.06 0.03 0.09 88 1016.9
20260504025809 66 39 0.0 3.0 0.06 0.03 0.09 88 1016.9
20260504025718 66 34 0.0 3.0 0.06 0.03 0.09 88 1017.0
20260504025610 66 34 0.0 3.0 0.06 0.03 0.09 88 1017.0
20260504025509 66 34 1.0 4.0 0.06 0.03 0.09 88 1016.9
20260504025412 66 34 1.0 4.0 0.06 0.03 0.09 88 1017.0
20260504025308 66 34 1.0 4.0 0.06 0.03 0.09 88 1017.1
20260504025212 66 348 1.0 4.0 0.06 0.03 0.09 88 1017.0
20260504025112 65 352 1.0 4.0 0.06 0.03 0.09 88 1017.1
20260504025012 65 15 1.0 4.0 0.06 0.03 0.09 87 1017.1
20260504024910 66 43 2.0 4.0 0.06 0.03 0.09 87 1017.2
20260504024809 66 327 2.0 4.0 0.06 0.03 0.09 87 1017.3
20260504024711 66 24 1.0 5.0 0.06 0.03 0.09 87 1017.4
20260504024611 66 355 1.0 5.0 0.06 0.03 0.09 87 1017.4
20260504024514 66 0 1.0 5.0 0.06 0.03 0.09 87 1017.3
20260504024409 66 341 0.0 5.0 0.06 0.03 0.09 87 1017.5
20260504024309 65 328 1.0 5.0 0.06 0.03 0.09 87 1017.5
20260504024211 66 347 2.0 5.0 0.06 0.03 0.09 87 1017.4
20260504024109 66 338 2.0 5.0 0.06 0.03 0.09 87 1017.5
20260504024011 66 321 2.0 5.0 0.06 0.03 0.09 87 1017.5
20260504023911 66 355 3.0 5.0 0.06 0.03 0.09 87 1017.5
20260504023808 66 5 3.0 5.0 0.06 0.03 0.09 87 1017.5
20260504023716 66 325 2.0 5.0 0.06 0.03 0.09 87 1017.5
20260504023610 66 5 2.0 5.0 0.06 0.03 0.09 87 1017.5
20260504023511 66 334 2.0 5.0 0.06 0.03 0.08 87 1017.6
20260504023407 66 355 2.0 6.0 0.06 0.03 0.08 87 1017.6
20260504023309 66 311 2.0 6.0 0.06 0.03 0.08 87 1017.6
20260504023219 66 333 2.0 12.0 0.06 0.03 0.08 87 1017.5
20260504023103 66 315 3.0 12.0 0.06 0.03 0.08 87 1017.6
20260504023002 66 329 2.0 12.0 0.06 0.03 0.08 87 1017.7
20260504022858 66 306 2.0 12.0 0.06 0.03 0.08 87 1017.7
20260504022755 66 342 3.0 12.0 0.06 0.03 0.07 87 1017.6
20260504022655 66 343 3.0 12.0 0.06 0.03 0.07 87 1017.7
20260504022555 66 311 4.0 12.0 0.06 0.03 0.07 86 1017.7
20260504022449 66 321 5.0 12.0 0.06 0.03 0.06 86 1017.8
20260504022346 66 324 5.0 12.0 0.05 0.03 0.06 86 1017.8
20260504022248 66 278 3.0 12.0 0.05 0.03 0.06 86 1017.9
20260504022209 66 311 2.0 6.0 0.06 0.03 0.06 86 1017.8
20260504022039 66 291 3.0 6.0 0.06 0.03 0.06 86 1017.8
20260504021937 66 308 3.0 6.0 0.05 0.03 0.06 86 1017.9
20260504021837 66 331 2.0 6.0 0.05 0.03 0.06 86 1018.0
20260504021739 66 285 3.0 6.0 0.05 0.03 0.05 86 1018.0
20260504021559 67 311 1.0 6.0 0.04 0.03 0.05 86 1018.0
20260504021536 67 288 1.0 6.0 0.04 0.03 0.05 86 1018.1
20260504021518 67 325 2.0 6.0 0.04 0.03 0.05 86 1018.1
20260504021456 67 317 2.0 6.0 0.04 0.03 0.05 86 1018.1
20260504021424 67 302 2.0 6.0 0.04 0.03 0.04 86 1018.1
20260504021038 67 311 1.0 4.0 0.04 0.03 0.04 86 1018.1
20260504020941 67 297 0.0 4.0 0.04 0.03 0.04 86 1018.2
20260504020738 67 292 1.0 4.0 0.03 0.03 0.03 86 1018.2
20260504020542 67 305 2.0 4.0 0.03 0.03 0.03 86 1018.2
20260504020437 67 319 3.0 4.0 0.03 0.03 0.03 86 1018.2
20260504020340 67 350 2.0 4.0 0.03 0.03 0.03 86 1018.1
20260504020238 67 13 2.0 4.0 0.03 0.03 0.03 86 1018.1
20260504020137 67 346 1.0 4.0 0.03 0.03 0.03 86 1018.2
20260504020040 67 43 1.0 4.0 0.03 0.03 0.03 86 1018.2
20260504015953 67 348 1.0 4.0 0.03 0.00 0.03 86 1018.1
20260504015932 67 347 1.0 4.0 0.03 0.00 0.03 86 1018.3
20260504015912 67 343 2.0 4.0 0.03 0.00 0.03 86 1018.3
20260504015634 67 336 2.0 4.0 0.03 0.00 0.03 86 1018.3
20260504015523 67 327 2.0 3.0 0.03 0.00 0.03 86 1018.3
20260504015423 67 332 1.0 3.0 0.03 0.00 0.03 86 1018.4
20260504015320 67 321 1.0 2.0 0.03 0.00 0.03 86 1018.3
20260504015219 67 321 1.0 2.0 0.03 0.00 0.03 86 1018.3
20260504015117 67 321 1.0 2.0 0.03 0.00 0.03 86 1018.3
20260504015014 67 321 1.0 3.0 0.03 0.00 0.03 86 1018.3
20260504014911 67 321 1.0 3.0 0.03 0.00 0.03 86 1018.4
20260504014810 67 323 1.0 4.0 0.03 0.00 0.03 85 1018.4
20260504014710 67 323 2.0 4.0 0.03 0.00 0.02 85 1018.4
20260504014609 67 300 1.0 4.0 0.03 0.00 0.02 85 1018.4
20260504014513 67 296 0.0 4.0 0.02 0.00 0.02 85 1018.4
20260504014409 67 280 1.0 4.0 0.02 0.00 0.02 85 1018.5
20260504014309 67 280 2.0 4.0 0.02 0.00 0.02 85 1018.5
20260504014211 67 281 2.0 4.0 0.02 0.00 0.02 85 1018.4
20260504014114 67 288 2.0 4.0 0.02 0.00 0.02 85 1018.5
20260504014013 67 275 2.0 4.0 0.02 0.00 0.02 85 1018.5
20260504013920 68 278 1.0 4.0 0.02 0.00 0.02 85 1018.5
20260504013855 68 272 1.0 4.0 0.02 0.00 0.02 85 1018.5
20260504013833 68 303 2.0 4.0 0.02 0.00 0.02 85 1018.5
20260504013801 68 303 2.0 4.0 0.02 0.00 0.02 85 1018.6
20260504013517 68 304 2.0 4.0 0.02 0.00 0.02 85 1018.5
20260504013452 68 321 1.0 4.0 0.02 0.00 0.02 85 1018.6
20260504013431 68 323 0.0 4.0 0.02 0.00 0.02 85 1018.5
20260504013412 68 280 0.0 3.0 0.02 0.00 0.02 84 1018.5
20260504013104 68 280 0.0 4.0 0.02 0.00 0.02 84 1018.6
20260504012954 68 280 1.0 4.0 0.02 0.00 0.02 84 1018.6
20260504012856 68 279 1.0 4.0 0.02 0.00 0.02 84 1018.5
20260504012751 68 279 1.0 4.0 0.02 0.00 0.02 84 1018.6
20260504012649 68 279 1.0 4.0 0.02 0.00 0.02 84 1018.6
20260504012548 68 279 1.0 4.0 0.02 0.00 0.02 84 1018.7
20260504012502 68 279 1.0 4.0 0.02 0.00 0.02 84 1018.6
20260504012438 68 284 2.0 4.0 0.02 0.00 0.02 84 1018.7
20260504012417 68 284 3.0 4.0 0.02 0.00 0.01 84 1018.7
20260504012356 68 303 2.0 4.0 0.01 0.00 0.01 84 1018.9
20260504012037 68 276 1.0 4.0 0.01 0.00 0.01 84 1018.8
20260504011939 68 275 2.0 4.0 0.01 0.00 0.01 84 1018.9
20260504011841 68 277 2.0 4.0 0.01 0.00 0.01 84 1018.8
20260504011740 68 269 2.0 4.0 0.01 0.00 0.01 84 1018.8
20260504011640 68 279 1.0 4.0 0.01 0.00 0.01 83 1018.8
20260504011543 68 290 1.0 4.0 0.01 0.00 0.01 83 1018.9
20260504011438 68 273 1.0 4.0 0.01 0.00 0.01 83 1018.9
20260504011336 68 284 1.0 4.0 0.01 0.00 0.01 83 1018.9
20260504011237 68 290 1.0 4.0 0.01 0.00 0.01 83 1018.9
20260504011143 68 290 2.0 4.0 0.01 0.00 0.01 83 1018.9
20260504011038 68 290 2.0 4.0 0.00 0.00 0.00 83 1018.9
20260504010942 68 282 2.0 4.0 0.00 0.00 0.00 83 1018.9
20260504010839 68 299 2.0 4.0 0.00 0.00 0.00 83 1018.9
20260504010737 68 285 2.0 3.0 0.00 0.00 0.00 83 1018.9
20260504010639 68 333 2.0 3.0 0.00 0.00 0.00 83 1019.0
20260504010540 68 305 2.0 3.0 0.00 0.00 0.00 83 1019.0
20260504010440 68 311 2.0 3.0 0.00 0.00 0.00 82 1019.0
20260504010338 68 301 2.0 3.0 0.00 0.00 0.00 82 1019.0
20260504010237 68 323 1.0 3.0 0.00 0.00 0.00 82 1018.9
20260504010140 68 323 2.0 2.0 0.00 0.00 0.00 82 1018.9
20260504010037 68 323 1.0 2.0 0.00 0.00 0.00 83 1018.8
20260504010010 68 323 0.0 2.0 0.00 0.00 0.00 83 1018.8
20260504005916 68 323 0.0 2.0 0.00 0.00 0.00 83 1018.8
20260504005856 68 323 1.0 2.0 0.00 0.00 0.00 83 1018.8
20260504005834 68 334 1.0 2.0 0.00 0.00 0.00 83 1018.8
20260504005527 68 340 1.0 2.0 0.00 0.00 0.00 84 1018.9
20260504005431 68 329 1.0 2.0 0.00 0.00 0.00 84 1018.8
20260504005318 68 325 0.0 2.0 0.00 0.00 0.00 84 1018.8
20260504005212 68 343 0.0 2.0 0.00 0.00 0.00 84 1018.8
20260504005012 68 343 0.0 2.0 0.00 0.00 0.00 84 1018.8
20260504004909 68 343 0.0 2.0 0.00 0.00 0.00 84 1018.8
20260504004810 68 343 1.0 3.0 0.00 0.00 0.00 84 1018.7
20260504004711 68 343 1.0 3.0 0.00 0.00 0.00 84 1018.8
20260504004515 68 57 0.0 3.0 0.00 0.00 0.00 84 1018.7
20260504004412 68 57 0.0 3.0 0.00 0.00 0.00 84 1018.7
20260504004310 68 57 1.0 3.0 0.00 0.00 0.00 84 1018.7
20260504004209 68 57 1.0 3.0 0.00 0.00 0.00 84 1018.6
20260504004011 68 57 1.0 3.0 0.00 0.00 0.00 85 1018.7
20260504003933 68 57 2.0 3.0 0.00 0.00 0.00 85 1018.6
20260504003916 68 57 2.0 3.0 0.00 0.00 0.00 85 1018.6
20260504003853 68 57 0.0 3.0 0.00 0.00 0.00 85 1018.7
20260504003827 68 46 0.0 3.0 0.00 0.00 0.00 86 1018.7
20260504003509 68 71 0.0 2.0 0.00 0.00 0.00 86 1018.6
20260504003412 68 71 0.0 2.0 0.00 0.00 0.00 86 1018.6
20260504003310 68 71 0.0 2.0 0.00 0.00 0.00 86 1018.7
20260504003210 68 71 0.0 2.0 0.00 0.00 0.00 86 1018.6
20260504003011 68 71 0.0 2.0 0.00 0.00 0.00 86 1018.5
20260504002909 68 71 1.0 2.0 0.00 0.00 0.00 87 1018.6
20260504002759 68 71 0.0 2.0 0.00 0.00 0.00 87 1018.6
20260504002701 67 104 0.0 2.0 0.00 0.00 0.00 87 1018.6
20260504002553 67 122 0.0 2.0 0.00 0.00 0.00 87 1018.6
20260504002449 67 122 0.0 2.0 0.00 0.00 0.00 88 1018.5
20260504002349 67 122 1.0 2.0 0.00 0.00 0.00 88 1018.5
20260504002245 67 122 1.0 2.0 0.00 0.00 0.00 88 1018.5
20260504002144 67 122 0.0 2.0 0.00 0.00 0.00 88 1018.5
20260504002038 67 122 0.0 1.0 0.00 0.00 0.00 88 1018.5
20260504001938 67 122 0.0 1.0 0.00 0.00 0.00 88 1018.5
20260504001842 67 122 0.0 1.0 0.00 0.00 0.00 89 1018.5
20260504001737 67 122 0.0 1.0 0.00 0.00 0.00 88 1018.5
20260504001636 67 122 0.0 1.0 0.00 0.00 0.00 89 1018.6
20260504001538 67 122 1.0 2.0 0.00 0.00 0.00 89 1018.5
20260504001438 67 122 0.0 2.0 0.00 0.00 0.00 89 1018.5
20260504001340 67 122 0.0 2.0 0.00 0.00 0.00 89 1018.6
20260504001239 66 122 0.0 2.0 0.00 0.00 0.00 89 1018.6
20260504001139 66 122 0.0 2.0 0.00 0.00 0.00 89 1018.6
20260504001038 66 122 0.0 2.0 0.00 0.00 0.00 89 1018.6
20260504000937 66 122 0.0 2.0 0.00 0.00 0.00 89 1018.6
20260504000837 66 122 0.0 2.0 0.00 0.00 0.00 89 1018.6
20260504000743 66 122 1.0 2.0 0.00 0.00 0.00 89 1018.5
20260504000638 66 122 1.0 2.0 0.00 0.00 0.00 90 1018.6
20260504000538 66 128 0.0 2.0 0.00 0.00 0.00 90 1018.6
20260504000437 66 168 0.0 0.0 0.00 0.00 0.00 90 1018.5
20260504000340 66 168 0.0 1.0 0.00 0.00 0.00 90 1018.5
20260504000241 66 168 0.0 1.0 0.00 0.00 0.00 90 1018.5
20260504000138 66 168 0.0 1.0 0.00 0.00 0.00 90 1018.5
20260504000037 66 168 0.0 1.0 0.00 0.00 0.00 90 1018.5
20260503235939 65 168 0.0 1.0 0.00 0.00 0.00 90 1018.6
20260503235840 65 168 0.0 1.0 0.00 0.00 0.00 90 1018.5
20260503235735 65 168 0.0 1.0 0.00 0.00 0.00 90 1018.6
20260503235636 65 168 0.0 2.0 0.00 0.00 0.00 90 1018.5
20260503235530 65 168 0.0 2.0 0.00 0.00 0.00 90 1018.6
20260503235425 65 206 0.0 2.0 0.00 0.00 0.00 90 1018.5
20260503235325 65 206 0.0 3.0 0.00 0.00 0.00 90 1018.6
20260503235219 65 206 0.0 3.0 0.00 0.00 0.00 90 1018.7
20260503235126 65 206 0.0 3.0 0.00 0.00 0.00 90 1018.6
20260503235018 65 206 0.0 3.0 0.00 0.00 0.00 90 1018.6
20260503234912 65 206 0.0 3.0 0.00 0.00 0.00 90 1018.7
20260503234813 65 206 1.0 3.0 0.00 0.00 0.00 90 1018.7
20260503234712 65 206 1.0 4.0 0.00 0.00 0.00 90 1018.7
20260503234513 65 214 1.0 4.0 0.00 0.00 0.00 90 1018.8
20260503234409 65 203 1.0 4.0 0.00 0.00 0.00 90 1018.8
20260503234309 65 214 1.0 4.0 0.00 0.00 0.00 90 1018.8
20260503234209 65 194 1.0 4.0 0.00 0.00 0.00 90 1018.8
20260503234011 65 187 2.0 4.0 0.00 0.00 0.00 90 1018.8
20260503233914 65 190 3.0 5.0 0.00 0.00 0.00 90 1018.8
20260503233810 65 196 2.0 5.0 0.00 0.00 0.00 90 1018.9
20260503233710 65 223 0.0 5.0 0.00 0.00 0.00 91 1018.9
20260503233509 65 231 2.0 5.0 0.00 0.00 0.00 91 1019.0
20260503233409 65 221 2.0 5.0 0.00 0.00 0.00 91 1019.0
20260503233310 65 242 1.0 5.0 0.00 0.00 0.00 91 1019.0
20260503233209 65 230 2.0 5.0 0.00 0.00 0.00 91 1019.1
20260503233009 65 237 2.0 5.0 0.00 0.00 0.00 91 1019.0
20260503232922 65 202 1.0 5.0 0.00 0.00 0.00 91 1019.1
20260503232811 65 242 2.0 5.0 0.00 0.00 0.00 91 1019.0
20260503232710 65 261 3.0 5.0 0.00 0.00 0.00 91 1019.0
20260503232511 65 219 2.0 6.0 0.00 0.00 0.00 91 1019.0
20260503232410 65 254 2.0 6.0 0.00 0.00 0.00 91 1019.1
20260503232311 65 265 2.0 6.0 0.00 0.00 0.00 91 1019.1
20260503232208 65 246 2.0 6.0 0.00 0.00 0.00 91 1019.1
20260503232010 65 271 2.0 6.0 0.00 0.00 0.00 91 1019.1
20260503231911 65 271 3.0 6.0 0.00 0.00 0.00 92 1019.1
20260503231809 65 244 3.0 6.0 0.00 0.00 0.00 92 1019.1
20260503231710 65 277 2.0 6.0 0.00 0.00 0.00 92 1019.1
20260503231508 65 277 2.0 4.0 0.00 0.00 0.00 92 1019.0
20260503231411 65 271 1.0 4.0 0.00 0.00 0.00 92 1019.0
20260503231311 65 277 0.0 4.0 0.00 0.00 0.00 92 1019.0
20260503231208 65 243 1.0 3.0 0.00 0.00 0.00 92 1019.0
20260503231012 65 242 1.0 4.0 0.00 0.00 0.00 92 1019.0
20260503230945 65 248 1.0 4.0 0.00 0.00 0.00 92 1018.9
20260503230926 65 241 1.0 4.0 0.00 0.00 0.00 92 1018.9
20260503230904 65 265 1.0 4.0 0.00 0.00 0.00 92 1018.9
20260503230841 65 275 1.0 4.0 0.00 0.00 0.00 92 1018.9
20260503230510 65 275 1.0 4.0 0.00 0.00 0.00 92 1018.9
20260503230410 65 268 2.0 4.0 0.00 0.00 0.00 92 1018.8
20260503230309 65 268 2.0 4.0 0.00 0.00 0.00 92 1018.8
20260503230211 65 275 2.0 4.0 0.00 0.00 0.00 92 1019.0
20260503230013 65 273 2.0 4.0 0.00 0.00 0.00 92 1018.9
20260503225912 65 259 2.0 4.0 0.00 0.00 0.00 92 1018.9
20260503225812 65 259 1.0 4.0 0.00 0.00 0.00 92 1018.8
20260503225711 65 260 1.0 2.0 0.00 0.00 0.00 92 1018.9
20260503225511 65 260 0.0 2.0 0.00 0.00 0.00 92 1018.8
20260503225410 65 260 0.0 2.0 0.00 0.00 0.00 92 1018.8
20260503225313 65 267 0.0 0.0 0.00 0.00 0.00 92 1018.7
20260503225208 65 267 0.0 0.0 0.00 0.00 0.00 92 1018.6
20260503225010 65 267 0.0 0.0 0.00 0.00 0.00 92 1018.5
20260503224909 65 267 0.0 0.0 0.00 0.00 0.00 92 1018.6
20260503224810 65 267 0.0 0.0 0.00 0.00 0.00 92 1018.5
20260503224710 65 267 0.0 0.0 0.00 0.00 0.00 92 1018.5
20260503224513 64 267 0.0 0.0 0.00 0.00 0.00 92 1018.5
20260503224409 64 267 0.0 0.0 0.00 0.00 0.00 92 1018.5
20260503224313 64 267 0.0 0.0 0.00 0.00 0.00 92 1018.5
20260503224211 64 267 0.0 0.0 0.00 0.00 0.00 92 1018.4
20260503224011 64 267 0.0 0.0 0.00 0.00 0.00 92 1018.5
20260503223909 64 267 0.0 0.0 0.00 0.00 0.00 92 1018.5
20260503223810 64 267 0.0 0.0 0.00 0.00 0.00 92 1018.4
20260503223708 64 267 0.0 0.0 0.00 0.00 0.00 92 1018.4
20260503223509 64 267 0.0 0.0 0.00 0.00 0.00 92 1018.4
20260503223415 64 267 0.0 0.0 0.00 0.00 0.00 92 1018.3
20260503223310 64 267 0.0 0.0 0.00 0.00 0.00 92 1018.3
20260503223209 64 267 0.0 0.0 0.00 0.00 0.00 92 1018.3
20260503223008 64 267 0.0 0.0 0.00 0.00 0.00 92 1018.2
20260503222922 64 267 0.0 0.0 0.00 0.00 0.00 92 1018.2
20260503222824 64 267 0.0 0.0 0.00 0.00 0.00 92 1018.3
20260503222710 64 267 0.0 0.0 0.00 0.00 0.00 92 1018.1
20260503222510 64 267 0.0 0.0 0.00 0.00 0.00 92 1018.2
20260503222410 64 267 0.0 0.0 0.00 0.00 0.00 92 1018.1
20260503222309 64 267 0.0 2.0 0.00 0.00 0.00 93 1018.1
20260503222209 64 267 0.0 3.0 0.00 0.00 0.00 93 1018.1
20260503222009 64 267 0.0 3.0 0.00 0.00 0.00 93 1018.1
20260503221941 64 267 0.0 3.0 0.00 0.00 0.00 93 1018.1
20260503221911 64 267 0.0 3.0 0.00 0.00 0.00 93 1018.1
20260503221852 64 267 0.0 3.0 0.00 0.00 0.00 93 1018.2
20260503221828 64 267 0.0 3.0 0.00 0.00 0.00 93 1018.2
20260503221511 64 267 1.0 3.0 0.00 0.00 0.00 92 1018.2
20260503221409 64 267 2.0 3.0 0.00 0.00 0.00 92 1018.1
20260503221311 64 268 1.0 3.0 0.00 0.00 0.00 92 1018.0
20260503221211 64 279 0.0 2.0 0.00 0.00 0.00 92 1018.1
20260503221014 64 258 1.0 2.0 0.00 0.00 0.00 92 1018.0
20260503220911 64 258 0.0 2.0 0.00 0.00 0.00 92 1018.0
20260503220808 64 111 0.0 0.0 0.00 0.00 0.00 92 1018.1
20260503220710 63 111 0.0 0.0 0.00 0.00 0.00 92 1018.0
20260503220514 63 111 0.0 0.0 0.00 0.00 0.00 93 1018.1
20260503220409 63 111 0.0 0.0 0.00 0.00 0.00 93 1018.1
20260503220310 63 111 0.0 0.0 0.00 0.00 0.00 93 1018.1
20260503220209 63 111 0.0 0.0 0.00 0.00 0.00 93 1018.1
20260503220011 63 111 0.0 1.0 0.00 0.00 0.00 93 1018.1
20260503215909 63 111 0.0 2.0 0.00 0.00 0.00 93 1018.0
20260503215821 63 111 0.0 2.0 0.00 0.00 0.00 93 1018.1
20260503215710 63 111 0.0 2.0 0.00 0.00 0.00 93 1018.0
20260503215511 63 111 0.0 2.0 0.00 0.00 0.00 93 1018.0
20260503215410 63 111 0.0 2.0 0.00 0.00 0.00 93 1018.0
20260503215311 63 111 0.0 2.0 0.00 0.00 0.00 93 1017.9
20260503215210 63 111 1.0 2.0 0.00 0.00 0.00 93 1017.8
20260503215009 63 120 1.0 2.0 0.00 0.00 0.00 93 1017.9
20260503214910 63 123 1.0 2.0 0.00 0.00 0.00 93 1017.8
20260503214812 63 140 0.0 2.0 0.00 0.00 0.00 93 1017.8
20260503214710 63 148 0.0 2.0 0.00 0.00 0.00 93 1017.9
20260503214511 63 148 0.0 2.0 0.00 0.00 0.00 93 1017.9
20260503214442 63 148 0.0 2.0 0.00 0.00 0.00 93 1017.9
20260503214414 63 148 0.0 2.0 0.00 0.00 0.00 93 1018.0
20260503214355 63 242 0.0 3.0 0.00 0.00 0.00 93 1017.9
20260503214329 63 242 0.0 4.0 0.00 0.00 0.00 93 1017.9
20260503214012 63 268 0.0 4.0 0.00 0.00 0.00 93 1018.0
20260503213934 62 268 0.0 4.0 0.00 0.00 0.00 93 1017.9
20260503213914 62 268 0.0 4.0 0.00 0.00 0.00 93 1017.8
20260503213848 62 268 0.0 4.0 0.00 0.00 0.00 93 1017.9
20260503213823 62 268 0.0 4.0 0.00 0.00 0.00 93 1018.0
20260503213509 62 268 1.0 4.0 0.00 0.00 0.00 93 1018.0
20260503213413 62 268 2.0 4.0 0.00 0.00 0.00 93 1018.1
20260503213318 62 268 2.0 4.0 0.00 0.00 0.00 93 1018.1
20260503213212 62 285 2.0 4.0 0.00 0.00 0.00 93 1018.2
20260503213012 62 277 1.0 2.0 0.00 0.00 0.00 93 1018.0
20260503212910 62 278 0.0 2.0 0.00 0.00 0.00 93 1018.0
20260503212822 62 230 0.0 1.0 0.00 0.00 0.00 93 1017.9
20260503212702 62 230 0.0 1.0 0.00 0.00 0.00 93 1017.8
20260503212602 62 230 0.0 1.0 0.00 0.00 0.00 93 1017.8
20260503212456 62 230 0.0 1.0 0.00 0.00 0.00 93 1017.8
20260503212432 62 230 0.0 1.0 0.00 0.00 0.00 93 1017.8
20260503212405 62 230 0.0 1.0 0.00 0.00 0.00 93 1017.8
20260503212342 62 230 0.0 1.0 0.00 0.00 0.00 93 1017.7
20260503212046 62 230 0.0 1.0 0.00 0.00 0.00 93 1017.8
20260503211939 62 230 0.0 1.0 0.00 0.00 0.00 93 1017.7
20260503211837 62 230 0.0 1.0 0.00 0.00 0.00 93 1017.8
20260503211742 62 230 0.0 1.0 0.00 0.00 0.00 93 1017.7
20260503211639 62 230 0.0 0.0 0.00 0.00 0.00 93 1017.8
20260503211539 62 230 0.0 0.0 0.00 0.00 0.00 93 1017.8
20260503211440 62 230 0.0 0.0 0.00 0.00 0.00 93 1017.8
20260503211338 62 230 0.0 0.0 0.00 0.00 0.00 93 1017.8
20260503211238 62 230 0.0 0.0 0.00 0.00 0.00 92 1017.8
20260503211138 62 230 0.0 1.0 0.00 0.00 0.00 93 1017.8
20260503211038 62 230 0.0 1.0 0.00 0.00 0.00 92 1017.7
20260503210938 62 230 0.0 1.0 0.00 0.00 0.00 92 1017.7
20260503210837 62 230 0.0 1.0 0.00 0.00 0.00 92 1017.7
20260503210736 62 230 0.0 1.0 0.00 0.00 0.00 92 1017.7
20260503210638 62 230 0.0 1.0 0.00 0.00 0.00 92 1017.7
20260503210538 62 230 0.0 1.0 0.00 0.00 0.00 92 1017.5
20260503210437 62 230 0.0 1.0 0.00 0.00 0.00 92 1017.6
20260503210338 61 230 0.0 1.0 0.00 0.00 0.00 92 1017.5
20260503210236 61 230 0.0 1.0 0.00 0.00 0.00 92 1017.6
20260503210136 61 230 0.0 1.0 0.00 0.00 0.00 92 1017.5
20260503210036 61 230 0.0 1.0 0.00 0.00 0.00 92 1017.6
20260503205936 61 230 0.0 1.0 0.00 0.00 0.00 92 1017.6
20260503205836 61 230 0.0 0.0 0.00 0.00 0.00 92 1017.5
20260503205801 61 230 0.0 0.0 0.00 0.00 0.00 92 1017.6
20260503205635 61 230 0.0 0.0 0.00 0.00 0.00 92 1017.5
20260503205527 61 230 0.0 0.0 0.00 0.00 0.00 92 1017.4
20260503205420 61 230 0.0 0.0 0.00 0.00 0.00 92 1017.5
20260503205323 61 230 0.0 1.0 0.00 0.00 0.00 92 1017.5
20260503205221 61 230 0.0 1.0 0.00 0.00 0.00 92 1017.5
20260503205013 61 230 0.0 2.0 0.00 0.00 0.00 92 1017.6
20260503204911 61 230 0.0 3.0 0.00 0.00 0.00 92 1017.5
20260503204813 61 230 0.0 3.0 0.00 0.00 0.00 92 1017.6
20260503204712 61 230 0.0 3.0 0.00 0.00 0.00 92 1017.5
20260503204510 61 230 0.0 3.0 0.00 0.00 0.00 92 1017.6
20260503204410 61 230 0.0 3.0 0.00 0.00 0.00 92 1017.6
20260503204310 61 230 1.0 3.0 0.00 0.00 0.00 92 1017.7
20260503204209 61 230 1.0 3.0 0.00 0.00 0.00 92 1017.6
20260503204011 61 213 0.0 3.0 0.00 0.00 0.00 92 1017.6
20260503203910 61 275 0.0 1.0 0.00 0.00 0.00 92 1017.6
20260503203811 61 275 1.0 1.0 0.00 0.00 0.00 92 1017.7
20260503203709 61 275 0.0 1.0 0.00 0.00 0.00 92 1017.7
20260503203509 61 311 0.0 2.0 0.00 0.00 0.00 92 1017.7
20260503203440 61 311 0.0 2.0 0.00 0.00 0.00 92 1017.6
20260503203418 61 311 0.0 2.0 0.00 0.00 0.00 92 1017.6
20260503203352 61 311 0.0 2.0 0.00 0.00 0.00 92 1017.5
20260503203326 61 311 0.0 2.0 0.00 0.00 0.00 92 1017.5
20260503203011 61 311 0.0 2.0 0.00 0.00 0.00 92 1017.5
20260503202907 61 311 0.0 2.0 0.00 0.00 0.00 92 1017.4
20260503202807 61 311 0.0 2.0 0.00 0.00 0.00 92 1017.5
20260503202732 61 311 0.0 2.0 0.00 0.00 0.00 92 1017.6
20260503202608 61 311 0.0 2.0 0.00 0.00 0.00 92 1017.4
20260503202502 61 349 0.0 1.0 0.00 0.00 0.00 92 1017.4
20260503202402 61 349 0.0 1.0 0.00 0.00 0.00 92 1017.3
20260503202304 61 349 0.0 0.0 0.00 0.00 0.00 92 1017.4
20260503202154 61 349 0.0 0.0 0.00 0.00 0.00 92 1017.3
20260503202044 61 349 0.0 0.0 0.00 0.00 0.00 92 1017.2
20260503201937 61 349 0.0 0.0 0.00 0.00 0.00 92 1017.2
20260503201836 61 349 0.0 0.0 0.00 0.00 0.00 92 1017.2
20260503201738 61 349 0.0 0.0 0.00 0.00 0.00 92 1017.2
20260503201638 61 349 0.0 0.0 0.00 0.00 0.00 92 1017.2
20260503201539 61 349 0.0 0.0 0.00 0.00 0.00 92 1017.2
20260503201437 61 349 0.0 0.0 0.00 0.00 0.00 92 1017.2
20260503201337 61 349 0.0 0.0 0.00 0.00 0.00 92 1017.2
20260503201237 61 349 0.0 0.0 0.00 0.00 0.00 92 1017.2
20260503201136 61 349 0.0 0.0 0.00 0.00 0.00 92 1017.2
20260503201040 61 349 0.0 0.0 0.00 0.00 0.00 92 1017.2
20260503200938 61 349 0.0 0.0 0.00 0.00 0.00 92 1017.2
20260503200839 61 349 0.0 0.0 0.00 0.00 0.00 92 1017.2
20260503200740 61 349 0.0 0.0 0.00 0.00 0.00 92 1017.1
20260503200638 61 349 0.0 0.0 0.00 0.00 0.00 92 1017.1
20260503200541 61 349 0.0 0.0 0.00 0.00 0.00 92 1017.1
20260503200438 61 349 0.0 0.0 0.00 0.00 0.00 92 1017.0
20260503200337 61 349 0.0 0.0 0.00 0.00 0.00 92 1017.0
20260503200245 61 349 0.0 0.0 0.00 0.00 0.00 92 1017.0
20260503200138 61 349 0.0 0.0 0.00 0.00 0.00 92 1017.0
20260503200037 61 349 0.0 0.0 0.00 0.00 0.00 92 1016.9
20260503195940 61 349 0.0 1.0 0.00 0.00 0.00 92 1016.9
20260503195838 61 349 0.0 1.0 0.00 0.00 0.00 92 1017.0
20260503195741 61 349 0.0 1.0 0.00 0.00 0.00 92 1016.9
20260503195637 61 349 0.0 1.0 0.00 0.00 0.00 92 1017.0
20260503195535 61 349 0.0 1.0 0.00 0.00 0.00 92 1016.9
20260503195423 61 349 0.0 1.0 0.00 0.00 0.00 92 1016.9
20260503195321 61 349 0.0 1.0 0.00 0.00 0.00 92 1017.0
20260503195215 61 349 0.0 1.0 0.00 0.00 0.00 92 1017.0
20260503195014 61 349 0.0 1.0 0.00 0.00 0.00 92 1016.8
20260503194910 61 349 0.0 1.0 0.00 0.00 0.00 92 1016.8
20260503194810 61 349 0.0 1.0 0.00 0.00 0.00 92 1016.9
20260503194710 61 349 0.0 1.0 0.00 0.00 0.00 92 1016.8
20260503194511 61 349 0.0 0.0 0.00 0.00 0.00 92 1016.9
20260503194413 61 349 0.0 0.0 0.00 0.00 0.00 92 1016.9
20260503194310 61 349 0.0 0.0 0.00 0.00 0.00 92 1016.8
20260503194233 61 349 0.0 0.0 0.00 0.00 0.00 92 1016.8
20260503194133 61 349 0.0 0.0 0.00 0.00 0.00 92 1016.9
20260503194112 61 349 0.0 0.0 0.00 0.00 0.00 92 1016.9
20260503193834 61 349 0.0 0.0 0.00 0.00 0.00 92 1016.8
20260503193810 61 349 0.0 0.0 0.00 0.00 0.00 92 1016.9
20260503193714 61 349 0.0 0.0 0.00 0.00 0.00 92 1016.8
20260503193438 61 349 0.0 0.0 0.00 0.00 0.00 92 1016.9
20260503193419 61 349 0.0 0.0 0.00 0.00 0.00 92 1016.8
20260503193359 61 349 0.0 0.0 0.00 0.00 0.00 92 1016.8
20260503193326 61 349 0.0 0.0 0.00 0.00 0.00 92 1016.9
20260503193011 61 349 0.0 0.0 0.00 0.00 0.00 91 1016.8
20260503192908 61 349 0.0 0.0 0.00 0.00 0.00 92 1016.7
20260503192813 61 349 0.0 0.0 0.00 0.00 0.00 92 1016.8
20260503192718 61 349 0.0 1.0 0.00 0.00 0.00 92 1016.8
20260503192510 61 349 0.0 1.0 0.00 0.00 0.00 91 1016.7
20260503192411 61 349 0.0 1.0 0.00 0.00 0.00 91 1016.8
20260503192309 61 349 0.0 1.0 0.00 0.00 0.00 91 1016.8
20260503192210 61 349 0.0 1.0 0.00 0.00 0.00 91 1016.8
20260503192009 61 349 0.0 1.0 0.00 0.00 0.00 91 1016.8
20260503191908 61 349 0.0 1.0 0.00 0.00 0.00 91 1016.8
20260503191809 61 349 0.0 1.0 0.00 0.00 0.00 91 1016.8
20260503191711 61 349 0.0 1.0 0.00 0.00 0.00 91 1016.9
20260503191510 61 349 0.0 1.0 0.00 0.00 0.00 91 1016.9
20260503191411 61 349 0.0 1.0 0.00 0.00 0.00 91 1016.8
20260503191308 61 349 0.0 0.0 0.00 0.00 0.00 91 1016.8
20260503191211 61 349 0.0 0.0 0.00 0.00 0.00 91 1016.8
20260503191010 61 349 0.0 0.0 0.00 0.00 0.00 91 1016.9
20260503190913 61 349 0.0 0.0 0.00 0.00 0.00 91 1016.9
20260503190812 61 349 0.0 0.0 0.00 0.00 0.00 91 1016.8
20260503190713 61 349 0.0 0.0 0.00 0.00 0.00 91 1016.8
20260503190509 61 349 0.0 0.0 0.00 0.00 0.00 91 1016.9
20260503190417 61 349 0.0 0.0 0.00 0.00 0.00 91 1016.8
20260503190309 61 349 0.0 0.0 0.00 0.00 0.00 91 1016.8
20260503190212 61 349 0.0 0.0 0.00 0.00 0.00 91 1016.8
20260503190012 61 349 0.0 0.0 0.00 0.00 0.00 91 1016.9
20260503185909 61 349 0.0 0.0 0.00 0.00 0.00 91 1016.9
20260503185809 61 349 0.0 0.0 0.00 0.00 0.00 91 1016.9
20260503185710 61 349 0.0 0.0 0.00 0.00 0.00 91 1016.8
20260503185512 61 349 0.0 0.0 0.00 0.00 0.00 91 1016.9
20260503185411 61 349 0.0 0.0 0.00 0.00 0.00 91 1016.8
20260503185309 61 349 0.0 0.0 0.00 0.00 0.00 91 1016.9
20260503185210 61 349 0.0 0.0 0.00 0.00 0.00 91 1016.9
20260503185010 61 349 0.0 0.0 0.00 0.00 0.00 91 1016.9
20260503184910 61 349 0.0 0.0 0.00 0.00 0.00 91 1016.9
20260503184810 61 349 0.0 1.0 0.00 0.00 0.00 91 1016.9
20260503184709 61 349 0.0 1.0 0.00 0.00 0.00 91 1017.0
20260503184510 61 349 0.0 1.0 0.00 0.00 0.00 91 1016.9
20260503184409 61 349 0.0 1.0 0.00 0.00 0.00 91 1016.9
20260503184309 61 349 0.0 1.0 0.00 0.00 0.00 91 1016.9
20260503184209 61 349 0.0 1.0 0.00 0.00 0.00 91 1017.0
20260503184010 61 349 0.0 1.0 0.00 0.00 0.00 91 1016.9
20260503183911 61 349 0.0 1.0 0.00 0.00 0.00 91 1016.8
20260503183809 61 349 0.0 1.0 0.00 0.00 0.00 91 1016.8
20260503183711 61 349 0.0 1.0 0.00 0.00 0.00 91 1016.9
20260503183511 61 349 0.0 1.0 0.00 0.00 0.00 91 1016.9
20260503183411 61 349 0.0 1.0 0.00 0.00 0.00 91 1016.8
20260503183309 61 349 0.0 1.0 0.00 0.00 0.00 91 1016.9
20260503183208 61 349 0.0 1.0 0.00 0.00 0.00 90 1016.9
20260503183008 61 349 0.0 1.0 0.00 0.00 0.00 90 1016.9
20260503182910 61 349 0.0 1.0 0.00 0.00 0.00 90 1016.9
20260503182812 61 349 0.0 1.0 0.00 0.00 0.00 90 1016.9
20260503182712 61 349 0.0 1.0 0.00 0.00 0.00 90 1016.9
20260503182509 61 349 0.0 1.0 0.00 0.00 0.00 90 1016.9
20260503182408 61 349 0.0 1.0 0.00 0.00 0.00 90 1017.0
20260503182308 61 302 0.0 0.0 0.00 0.00 0.00 90 1016.9
20260503182209 61 302 0.0 0.0 0.00 0.00 0.00 90 1016.8
20260503182014 61 302 0.0 0.0 0.00 0.00 0.00 90 1016.9
20260503181908 61 302 0.0 0.0 0.00 0.00 0.00 90 1016.7
20260503181810 61 302 0.0 0.0 0.00 0.00 0.00 90 1016.7
20260503181709 61 302 0.0 0.0 0.00 0.00 0.00 90 1016.7
20260503181508 61 302 0.0 0.0 0.00 0.00 0.00 90 1016.7
20260503181412 61 302 0.0 0.0 0.00 0.00 0.00 90 1016.8
20260503181311 61 302 0.0 0.0 0.00 0.00 0.00 90 1016.7
20260503181210 61 302 0.0 0.0 0.00 0.00 0.00 90 1016.7
20260503181009 61 302 0.0 0.0 0.00 0.00 0.00 90 1016.8
20260503180910 61 302 0.0 0.0 0.00 0.00 0.00 90 1016.8
20260503180810 61 302 0.0 0.0 0.00 0.00 0.00 90 1016.8
20260503180711 61 302 0.0 0.0 0.00 0.00 0.00 90 1016.8
20260503180510 61 302 0.0 0.0 0.00 0.00 0.00 90 1016.8
20260503180430 61 302 0.0 0.0 0.00 0.00 0.00 90 1016.8
20260503180411 61 302 0.0 0.0 0.00 0.00 0.00 90 1016.8
20260503180349 61 302 0.0 0.0 0.00 0.00 0.00 90 1016.8
20260503180100 61 302 0.0 0.0 0.00 0.00 0.00 90 1016.8
20260503175958 61 302 0.0 0.0 0.00 0.00 0.00 90 1016.8
20260503175852 61 302 0.0 0.0 0.00 0.00 0.00 90 1016.7
20260503175753 61 302 0.0 0.0 0.00 0.00 0.00 90 1016.8
20260503175647 61 302 0.0 0.0 0.00 0.00 0.00 90 1016.8
20260503175549 61 302 0.0 0.0 0.00 0.00 0.00 90 1016.9
20260503175444 61 302 0.0 0.0 0.00 0.00 0.00 90 1016.9
20260503175344 61 302 0.0 0.0 0.00 0.00 0.00 90 1016.8
20260503175245 61 302 0.0 0.0 0.00 0.00 0.00 90 1016.9
20260503175143 61 302 0.0 0.0 0.00 0.00 0.00 90 1016.9
20260503175044 61 302 0.0 0.0 0.00 0.00 0.00 90 1017.0
20260503174938 61 302 0.0 0.0 0.00 0.00 0.00 90 1017.0
20260503174838 61 302 0.0 0.0 0.00 0.00 0.00 90 1016.9
20260503174739 61 302 0.0 0.0 0.00 0.00 0.00 90 1016.9
20260503174637 61 302 0.0 0.0 0.00 0.00 0.00 90 1016.9
20260503174538 61 302 0.0 0.0 0.00 0.00 0.00 90 1016.9
20260503174437 61 302 0.0 0.0 0.00 0.00 0.00 90 1016.9
20260503174339 61 302 0.0 0.0 0.00 0.00 0.00 90 1017.0
20260503174236 61 302 0.0 0.0 0.00 0.00 0.00 90 1017.0
20260503174137 61 302 0.0 0.0 0.00 0.00 0.00 90 1017.0
20260503174037 61 302 0.0 0.0 0.00 0.00 0.00 90 1017.0
20260503173940 61 302 0.0 0.0 0.00 0.00 0.00 90 1017.0
20260503173837 61 302 0.0 0.0 0.00 0.00 0.00 90 1017.0
20260503173738 61 302 0.0 0.0 0.00 0.00 0.00 90 1017.0
20260503173637 61 302 0.0 0.0 0.00 0.00 0.00 90 1016.9
20260503173537 61 302 0.0 0.0 0.00 0.00 0.00 90 1017.0
20260503173439 61 302 0.0 0.0 0.00 0.00 0.00 90 1017.0
20260503173337 61 302 0.0 0.0 0.00 0.00 0.00 89 1017.0
20260503173236 61 302 0.0 0.0 0.00 0.00 0.00 90 1017.0
20260503173137 61 302 0.0 0.0 0.00 0.00 0.00 90 1017.0
20260503173040 61 302 0.0 0.0 0.00 0.00 0.00 89 1017.0
20260503172926 61 302 0.0 0.0 0.00 0.00 0.00 89 1017.1
20260503172825 61 302 0.0 0.0 0.00 0.00 0.00 89 1017.0
20260503172726 61 302 0.0 0.0 0.00 0.00 0.00 89 1017.0
20260503172523 61 302 0.0 0.0 0.00 0.00 0.00 89 1017.0
20260503172423 61 302 0.0 0.0 0.00 0.00 0.00 89 1017.1
20260503172319 61 302 0.0 0.0 0.00 0.00 0.00 89 1017.1
20260503172216 61 302 0.0 0.0 0.00 0.00 0.00 89 1017.2
20260503172124 61 302 0.0 0.0 0.00 0.00 0.00 89 1017.2
20260503172021 61 302 0.0 0.0 0.00 0.00 0.00 89 1017.2
20260503171910 61 302 0.0 0.0 0.00 0.00 0.00 89 1017.2
20260503171811 61 302 0.0 0.0 0.00 0.00 0.00 89 1017.1
20260503171713 61 302 0.0 0.0 0.00 0.00 0.00 89 1017.2
20260503171510 62 302 0.0 0.0 0.00 0.00 0.00 89 1017.2
20260503171410 62 302 0.0 0.0 0.00 0.00 0.00 89 1017.2
20260503171313 62 302 0.0 0.0 0.00 0.00 0.00 89 1017.2
20260503171211 62 302 0.0 0.0 0.00 0.00 0.00 89 1017.2
20260503171010 62 302 0.0 0.0 0.00 0.00 0.00 89 1017.2
20260503170910 62 302 0.0 0.0 0.00 0.00 0.00 89 1017.4
20260503170811 62 302 0.0 0.0 0.00 0.00 0.00 89 1017.2
20260503170711 62 302 0.0 0.0 0.00 0.00 0.00 89 1017.3
20260503170511 62 302 0.0 0.0 0.00 0.00 0.00 89 1017.2
20260503170409 62 302 0.0 0.0 0.00 0.00 0.00 89 1017.2
20260503170313 62 302 0.0 0.0 0.00 0.00 0.00 89 1017.4
20260503170211 62 302 0.0 0.0 0.00 0.00 0.00 89 1017.3
20260503160210 63 280 0.0 2.0 0.00 0.00 0.00 88 1018.0
20260503150937 64 53 0.0 0.0 0.00 0.00 0.00 86 1018.2
20260503150837 64 53 0.0 0.0 0.00 0.00 0.00 86 1018.2
20260503150739 64 53 0.0 0.0 0.00 0.00 0.00 86 1018.2
20260503150642 64 53 0.0 0.0 0.00 0.00 0.00 86 1018.3
20260503150540 64 53 0.0 0.0 0.00 0.00 0.00 86 1018.3
20260503150439 64 53 0.0 0.0 0.00 0.00 0.00 86 1018.3
20260503150340 64 53 0.0 0.0 0.00 0.00 0.00 86 1018.3
20260503150237 64 53 0.0 0.0 0.00 0.00 0.00 86 1018.3
20260503150137 64 53 0.0 0.0 0.00 0.00 0.00 86 1018.4
20260503140259 65 344 0.0 1.0 0.00 0.00 0.00 85 1018.7
20260503140158 65 346 0.0 0.0 0.00 0.00 0.00 85 1018.8
20260503131410 66 62 1.0 5.0 0.00 0.00 0.00 85 1019.2
20260503131310 66 47 0.0 5.0 0.00 0.00 0.00 85 1019.1
20260503131209 66 58 1.0 5.0 0.00 0.00 0.00 85 1019.2
20260503131009 66 62 1.0 5.0 0.00 0.00 0.00 85 1019.1
20260503130910 66 39 2.0 5.0 0.00 0.00 0.00 85 1019.2
20260503130811 66 39 3.0 5.0 0.00 0.00 0.00 85 1019.1
20260503130710 66 19 3.0 5.0 0.00 0.00 0.00 85 1019.2
20260503130512 66 21 2.0 5.0 0.00 0.00 0.00 85 1019.2
20260503130448 66 32 2.0 5.0 0.00 0.00 0.00 85 1019.2
20260503130428 66 36 2.0 5.0 0.00 0.00 0.00 85 1019.2
20260503130407 66 40 2.0 5.0 0.00 0.00 0.00 85 1019.2
20260503130333 66 25 1.0 5.0 0.00 0.00 0.00 85 1019.2